Theta_e
298 298 298 299 299 298 297 295 292 295 296 293 291 294 292 297 295 294 295 297 296 295 294 294 294 299 297 298 300 297 303 305 316 313 309 308 311 310 312 315 313 308 309 311
297 298 298 298 299 299 297 295 293 295 294 291 295 293 295 296 295 294 295 296 296 295 294 294 294 295 296 296 296 298 299 304 311 314 312 310 311 310 312 311 309 312 314 312
297 297 298 298 299 299 296 294 294 292 290 291 295 296 296 296 296 295 295 295 294 291 293 293 292 293 295 295 295 297 302 304 305 312 311 311 312 312 310 312 314 314 311 311
297 297 297 298 299 299 296 293 290 293 292 293 293 295 296 297 297 293 293 292 294 290 293 293 293 293 294 294 297 300 298 299 301 305 310 310 312 311 312 312 312 313 312 310
297 297 296 298 298 298 295 295 294 289 290 292 294 294 297 297 295 293 293 292 294 293 290 292 292 293 293 293 294 296 297 298 303 306 314 311 312 311 311 312 312 311 309 309
297 297 297 298 298 298 297 294 292 294 290 291 293 294 296 298 297 295 293 293 293 293 293 293 293 293 293 293 293 294 295 299 305 315 315 315 315 313 310 310 307 310 311 308
297 298 297 298 298 298 298 297 292 291 289 292 293 292 294 296 297 297 295 293 292 293 292 292 292 293 295 294 294 295 296 300 303 309 317 320 309 305 308 304 301 300 303 302
298 298 297 297 297 298 298 297 294 293 291 292 292 293 293 293 294 293 293 292 291 290 291 293 292 297 296 301 297 300 296 300 304 311 315 314 304 303 304 310 302 298 298 300
297 297 297 298 297 298 297 297 296 293 293 289 292 292 293 295 291 290 292 291 290 291 293 293 290 298 295 296 296 296 300 300 303 305 309 307 301 299 297 302 303 296 295 295
297 297 297 297 297 297 297 297 296 293 294 290 293 292 292 294 294 294 292 292 293 291 292 292 292 293 295 296 297 298 299 300 301 303 308 302 295 294 298 300 296 292 293 292
297 296 296 296 296 296 297 296 297 295 294 291 292 293 294 294 294 295 293 294 291 293 288 288 291 292 292 294 295 298 294 294 299 301 302 298 289 291 292 290 288 289 289 289
298 296 296 296 296 296 297 297 296 296 295 292 294 293 293 292 292 294 295 295 296 297 293 286 284 292 288 290 295 289 288 284 287 290 292 285 288 286 284 283 283 284 286 286
297 296 296 296 296 296 298 296 296 295 292 289 289 292 294 293 294 294 295 293 294 294 293 294 291 291 294 291 293 285 280 281 283 284 286 281 283 283 281 280 281 282 285 284
296 296 295 295 296 296 296 295 295 293 289 293 290 291 291 292 293 293 294 294 294 294 294 295 294 294 294 292 282 280 278 279 279 282 282 280 289 279 279 279 280 281 281 283
295 295 295 295 295 296 295 295 293 292 291 286 289 290 291 291 293 292 293 293 294 295 296 295 294 293 292 283 280 278 278 278 278 278 278 278 278 278 278 279 279 279 279 281
293 294 294 294 295 297 295 289 294 294 293 293 288 286 287 289 291 291 292 292 291 294 295 296 287 284 288 284 281 279 277 277 277 276 276 277 276 276 277 277 277 278 281 284
292 290 294 294 296 296 293 290 294 293 293 293 289 283 284 287 288 286 287 291 293 293 289 286 284 281 281 278 278 278 277 276 275 275 275 275 276 275 275 275 277 278 282 282
291 289 293 294 295 295 294 294 292 293 293 288 281 283 284 284 285 284 280 289 291 286 286 284 281 279 277 276 276 276 275 274 273 273 273 273 273 273 273 274 276 279 279 279
289 290 290 294 292 289 290 291 293 292 292 292 282 280 283 281 281 281 282 280 288 280 278 279 278 273 273 275 276 275 274 273 273 272 271 271 273 273 273 274 274 276 276 276
289 289 290 283 289 289 291 291 292 281 280 277 277 272 279 279 278 278 278 282 286 281 283 277 273 273 274 275 275 274 273 273 272 272 272 272 273 273 274 273 274 275 275 275
288 286 287 289 289 288 277 276 278 273 276 275 276 273 276 276 276 276 279 282 280 280 280 277 267 270 274 273 271 272 273 272 272 272 272 272 273 273 274 274 274 274 275 275
288 289 289 288 278 275 279 271 274 276 278 273 272 274 273 273 275 277 281 279 278 281 274 273 271 273 273 272 272 272 273 273 272 272 271 272 273 272 273 274 274 274 274 275
288 284 277 278 277 282 278 279 279 279 276 271 271 274 269 273 276 276 276 278 278 273 270 272 272 274 274 273 273 273 273 273 273 273 272 272 272 272 272 272 273 274 274 274
277 278 282 280 277 277 275 278 277 276 269 268 263 266 270 270 275 271 278 275 273 268 270 272 271 272 274 273 273 273 272 272 272 272 272 272 272 272 271 271 272 273 274 274
277 279 284 277 279 276 274 271 273 271 263 265 268 269 269 270 272 270 271 275 272 272 274 274 274 274 273 273 273 272 272 272 271 272 272 272 272 272 271 271 271 272 272 273
276 276 277 275 277 273 270 265 266 264 264 266 267 268 269 272 269 271 271 275 273 274 273 273 273 273 273 272 272 272 272 272 271 271 271 271 272 272 272 271 271 271 271 271
274 275 272 273 271 271 269 267 268 269 268 269 266 271 272 271 272 271 272 273 273 272 272 273 273 273 273 272 273 273 273 272 272 271 271 271 272 272 272 271 271 271 271 271
Wind_Speed
33 34 36 37 38 41 30 6 4 11 23 4 1 2 3 7 6 3 4 3 2 3 10 8 5 7 8 19 10 16 4 7 8 7 4 7 21 10 16 11 12 3 3 6
34 34 35 36 36 35 25 7 4 8 8 3 8 4 7 6 5 5 4 4 3 3 5 5 7 6 9 15 15 5 7 3 5 5 3 5 7 6 16 9 2 10 9 7
33 34 34 35 35 34 20 4 5 4 3 1 4 11 5 6 6 7 4 5 2 4 12 5 7 18 9 10 18 20 8 5 9 9 12 4 13 20 12 20 15 18 11 5
32 34 36 35 35 33 14 2 3 3 5 6 14 11 7 13 5 3 2 5 3 3 7 15 8 14 20 13 10 2 5 8 8 14 24 10 7 7 21 14 20 14 14 9
31 33 37 38 35 31 2 2 2 3 4 6 8 8 2 11 5 1 8 2 16 12 6 12 22 17 16 14 8 1 1 6 9 18 14 8 5 12 12 18 18 9 5 5
32 35 37 36 34 27 3 3 4 1 5 5 5 5 12 10 7 6 3 12 11 14 16 15 21 22 23 20 18 13 6 4 4 5 13 6 2 3 14 6 15 5 3 10
33 34 34 33 32 26 11 11 3 1 4 2 5 13 14 16 13 10 11 7 4 8 17 21 16 13 14 11 13 10 7 4 3 5 6 6 4 20 15 26 17 21 15 18
32 32 32 30 30 28 21 16 4 2 4 3 10 8 10 14 10 5 6 8 6 10 9 5 8 6 8 7 10 2 15 4 4 4 2 4 17 16 6 5 13 20 18 18
32 32 32 31 31 27 23 16 7 2 2 4 4 7 7 7 4 5 6 5 6 5 2 3 4 5 4 6 14 10 11 7 3 4 4 7 12 21 20 9 11 20 20 20
33 33 32 32 31 28 23 12 8 4 2 4 2 4 4 5 3 5 5 7 6 4 4 3 3 3 5 5 9 9 8 4 6 7 3 5 18 24 10 9 6 20 15 16
34 36 35 33 31 27 19 13 10 6 3 7 5 4 7 8 6 4 6 5 2 2 4 3 3 3 3 4 4 7 6 6 5 5 5 4 24 10 8 7 8 16 15 15
35 37 35 34 31 24 17 6 4 10 3 5 19 23 24 16 19 5 2 3 4 2 1 1 0 3 3 3 4 9 5 5 4 6 2 4 9 10 6 10 13 15 15 18
37 35 36 32 28 18 16 7 4 2 2 5 3 2 5 9 7 12 3 2 2 2 2 1 2 2 1 2 3 4 13 13 4 11 4 23 7 9 16 18 17 17 16 17
37 36 35 33 23 14 11 3 3 1 1 3 6 6 8 8 8 7 20 11 3 1 2 2 3 2 3 2 5 5 5 10 13 7 10 22 5 24 23 28 22 20 18 16
38 38 35 29 18 12 8 2 3 2 1 2 4 16 4 10 15 21 10 13 6 2 2 2 2 0 3 4 4 5 6 6 5 5 17 12 22 25 28 22 24 22 21 22
40 41 35 24 13 8 3 3 3 9 3 2 3 5 4 10 23 15 6 4 3 2 2 1 4 4 3 3 3 5 11 10 10 8 15 16 22 22 19 22 22 21 19 12
39 40 35 19 5 4 1 3 2 9 5 1 4 5 4 11 6 4 3 5 2 3 3 3 3 5 5 3 2 11 12 12 15 12 15 9 11 15 20 19 19 23 14 6
39 40 29 8 2 3 0 1 12 8 3 2 1 4 5 9 3 4 2 3 3 5 3 2 3 3 3 3 8 10 9 11 10 11 13 12 14 12 13 15 12 11 9 8
40 35 12 2 1 3 4 14 3 4 4 1 2 1 4 7 3 2 4 2 3 1 3 2 3 3 4 5 12 12 12 8 11 11 10 11 9 11 11 11 11 10 9 7
27 11 4 3 5 18 3 1 0 4 4 4 2 0 3 3 3 3 3 2 2 2 1 2 3 1 4 4 8 8 10 11 12 12 16 16 15 14 13 12 11 10 8 7
10 8 3 11 16 2 3 3 3 3 4 3 2 1 2 2 1 3 1 2 1 2 2 3 2 2 5 7 7 7 8 11 10 8 9 10 11 12 12 11 11 10 11 8
11 12 9 6 5 3 5 1 4 5 1 4 2 3 2 4 2 1 3 1 3 0 1 3 2 3 4 7 8 9 10 12 9 13 10 14 14 15 11 10 10 11 13 14
1 2 4 3 4 7 5 5 4 4 3 3 3 5 1 4 2 2 3 4 1 1 4 1 2 3 6 7 8 8 12 13 13 13 17 16 16 17 15 12 14 13 15 14
3 3 6 4 4 0 3 2 2 2 1 3 0 2 1 2 3 1 2 1 2 4 3 1 2 3 7 7 7 7 9 9 9 10 14 14 15 14 16 17 17 14 14 17
2 3 2 2 2 1 0 1 2 1 1 2 3 2 1 2 2 2 2 4 3 1 0 2 4 7 6 7 6 7 7 7 6 10 11 12 14 13 14 18 18 18 18 18
3 5 2 2 2 3 3 2 2 1 2 0 1 1 3 3 1 5 3 2 3 2 3 4 6 6 6 6 6 7 8 9 10 11 11 11 12 12 11 15 17 17 17 17
4 1 1 2 2 3 2 2 2 2 2 1 1 4 2 2 3 3 3 2 2 5 5 5 6 6 6 7 9 9 9 7 8 10 12 12 11 12 12 10 13 14 14 13
Wind_Direction
349 348 350 350 349 350 353 1 336 323 340 40 66 313 258 304 302 308 286 290 283 296 327 323 319 315 316 4 352 334 321 301 231 207 287 221 215 190 188 204 228 270 182 246
347 347 348 348 349 351 342 330 276 315 352 29 336 292 287 269 296 297 312 287 258 311 312 326 296 305 311 321 336 341 324 328 307 187 5 318 199 174 194 199 122 210 213 241
345 344 345 346 347 350 352 333 318 318 18 334 322 316 332 308 316 283 241 272 343 346 317 256 281 291 300 330 307 305 283 248 229 276 217 132 200 201 193 197 218 223 231 258
343 342 343 344 345 350 344 12 274 310 306 324 311 303 294 300 314 289 1 308 251 253 298 308 283 300 301 311 313 96 4 264 274 271 264 237 190 194 209 200 213 214 226 203
340 341 342 342 343 349 19 291 287 302 271 289 311 303 299 301 306 278 308 244 306 309 238 274 291 293 297 284 293 64 169 274 304 295 220 188 158 197 197 221 229 231 141 234
339 340 339 341 342 348 319 310 267 262 275 311 314 312 325 305 326 277 233 292 302 303 295 293 280 277 272 261 267 265 245 253 299 281 155 120 77 278 184 163 32 300 314 358
337 338 340 340 341 344 329 308 218 243 276 266 290 301 311 322 314 297 296 296 271 280 303 298 287 272 272 259 248 232 254 260 265 261 174 177 103 28 73 87 45 25 17 11
337 338 340 338 340 338 331 312 205 195 270 257 302 307 307 308 294 273 275 286 240 307 313 330 338 338 4 8 0 207 221 250 282 324 321 75 29 354 350 6 58 21 7 357
337 338 338 338 339 339 332 323 275 184 300 252 285 308 302 315 315 307 248 298 311 348 329 7 353 9 295 334 333 325 337 196 321 328 30 34 329 335 324 234 44 7 4 354
336 337 337 338 338 337 331 307 266 207 239 262 223 295 290 292 294 277 301 329 338 4 9 352 347 316 336 355 326 333 355 340 350 358 18 79 335 343 354 60 327 324 355 344
335 337 337 338 337 336 330 301 280 219 228 276 216 207 275 287 277 283 315 332 342 356 39 44 312 322 322 314 294 338 28 319 350 349 20 0 344 14 48 343 311 326 335 337
332 337 337 337 337 335 325 288 258 263 241 263 297 281 277 250 252 265 248 253 302 328 103 180 39 313 329 347 314 23 32 25 284 24 47 13 318 86 33 357 332 333 323 332
333 336 338 337 338 335 328 305 290 259 321 299 326 314 327 304 253 240 265 273 186 255 210 208 188 239 22 321 29 46 351 6 20 338 48 338 316 2 354 348 337 322 328 328
333 334 336 337 337 333 329 282 203 207 247 286 281 316 312 296 330 291 225 253 231 208 213 235 203 208 171 44 86 65 352 331 325 291 348 334 147 347 333 326 325 329 327 328
332 333 334 336 334 327 320 176 118 75 98 239 285 311 282 317 325 321 272 235 250 257 252 237 232 119 22 82 90 58 355 343 346 291 326 300 297 316 316 319 326 322 322 322
329 331 334 333 325 327 259 15 64 19 316 311 313 301 304 320 330 320 286 253 194 213 254 257 57 15 12 76 73 20 352 332 309 294 300 297 299 304 318 316 311 309 306 312
328 331 331 330 314 304 221 170 35 348 348 335 311 317 306 325 317 330 352 359 27 358 44 47 36 15 42 67 47 337 334 322 311 304 314 307 315 309 308 305 309 306 300 319
326 328 323 331 336 147 203 152 333 341 108 73 14 284 351 12 325 327 354 347 51 29 73 61 42 22 38 79 337 328 326 312 287 311 309 288 290 297 308 313 319 331 349 353
327 318 330 152 64 3 313 323 50 81 67 19 72 57 290 354 330 292 326 13 62 324 69 38 71 356 47 301 328 331 333 329 303 305 288 304 322 317 328 331 342 355 358 8
328 339 47 13 341 318 318 127 77 16 354 24 66 50 291 23 350 301 347 338 69 58 27 84 68 125 252 290 320 317 326 322 327 338 343 342 345 345 346 348 350 0 8 15
357 12 356 309 322 305 26 41 67 333 23 7 329 137 292 335 38 274 207 305 10 66 284 102 11 343 333 316 314 324 334 329 327 319 322 332 342 341 345 352 354 4 17 23
303 292 302 303 18 21 72 332 335 47 306 334 7 298 237 296 330 354 327 60 30 58 337 73 50 264 301 322 319 329 344 332 334 348 342 351 356 354 350 354 0 9 28 31
299 38 41 34 321 32 57 343 326 351 354 357 338 325 312 324 12 298 30 47 288 9 41 111 188 295 328 327 329 330 334 344 350 355 360 360 359 2 6 3 8 32 46 47
70 58 10 73 345 1 188 206 226 282 23 335 351 273 301 304 339 339 56 264 60 50 50 258 271 293 335 333 332 337 339 346 346 352 354 358 0 2 10 13 18 30 38 48
73 60 59 66 221 53 276 271 349 305 157 19 338 303 92 316 4 40 12 28 45 115 72 343 324 328 333 333 339 341 342 344 343 344 348 354 359 8 14 19 30 40 45 48
71 44 59 284 73 324 347 356 291 278 337 332 73 349 31 16 31 43 13 9 25 2 322 304 311 318 324 328 323 322 339 354 353 358 360 1 5 5 9 31 37 40 48 48
60 326 25 127 111 189 244 197 258 312 36 11 78 46 271 281 48 34 9 23 322 317 313 317 313 311 321 326 328 338 345 356 1 3 12 15 19 30 27 27 24 40 47 55